GW6805 Weather Reports


time (UTC)temp
F
wind
direction
speed
knots
gust
knots
rain 1hr
in
rain 24hr
in
rain mn
in
humidity
%
barometer
mb
20260508173604 68 45 6.1 9.6 0.00 0.49 0.41 79
20260508173012 67 130 6.1 9.6 0.00 0.49 0.35 79 1014.1
20260508172704 67 270 6.1 9.6 0.00 0.49 0.41 79
20260508171804 67 270 6.1 9.6 0.00 0.49 0.41 79
20260508171604 67 124 6.1 9.6 0.00 0.49 0.35 79 1014.0
20260508170904 68 292 8.7 10.4 0.00 0.49 0.41 78
20260508170055 67 109 7.0 10.4 0.00 0.49 0.35 78 1014.0
20260508170025 69 202 7.8 13.0 0.00 0.49 0.41 76
20260508165404 69 202 7.8 13.0 0.00 0.49 0.41 76
20260508164522 68 121 7.8 13.0 0.00 0.49 0.35 76 1013.7
20260508164504 70 292 8.7 13.9 0.00 0.49 0.41 76
20260508163605 70 292 8.7 13.9 0.00 0.49 0.41 76
20260508163008 69 109 7.8 13.9 0.00 0.49 0.35 76 1013.5
20260508162704 69 157 9.6 14.8 0.00 0.49 0.41 76
20260508161804 69 157 9.6 14.8 0.00 0.49 0.41 76
20260508161607 68 119 8.7 14.8 0.00 0.49 0.35 76 1013.5
20260508160925 69 22 8.7 10.4 0.00 0.49 0.41 75
20260508160017 69 113 5.2 10.4 0.00 0.52 0.35 75 1013.8
20260508160004 69 22 5.2 9.6 0.00 0.50 0.41 76
20260508155425 69 22 5.2 9.6 0.00 0.50 0.41 76
20260508154504 69 315 3.5 7.8 0.00 0.52 0.41 78
20260508154501 69 97 4.3 9.6 0.00 0.52 0.35 76 1014.1
20260508153604 69 315 3.5 7.8 0.00 0.52 0.41 78
20260508153058 69 126 5.2 7.8 0.00 0.52 0.35 78 1014.2
20260508152704 68 180 7.0 7.8 0.00 0.52 0.41 78
20260508151804 68 180 7.0 7.8 0.00 0.52 0.41 78
20260508151541 68 136 3.5 7.8 0.00 0.52 0.35 78 1014.4
20260508150904 68 157 9.6 9.6 0.00 0.52 0.41 79
20260508150120 68 167 6.1 9.6 0.00 0.52 0.35 79 1014.5
20260508150005 67 90 5.2 9.6 0.00 0.52 0.41 80
20260508145404 67 90 5.2 9.6 0.00 0.52 0.41 80
20260508144554 67 116 5.2 9.6 0.00 0.52 0.35 80 1014.7
20260508144518 67 202 4.3 10.4 0.00 0.52 0.41 83
20260508143604 67 202 4.3 10.4 0.00 0.52 0.41 83
20260508143110 67 153 4.3 10.4 0.00 0.52 0.35 83 1014.5
20260508142727 67 337 3.5 9.6 0.00 0.52 0.41 83
20260508141804 67 337 3.5 9.6 0.00 0.52 0.41 83
20260508141533 66 127 5.2 9.6 0.00 0.52 0.35 83 1014.8
20260508140904 66 225 7.8 9.6 0.00 0.52 0.41 83
20260508140114 66 106 7.8 9.6 0.00 0.52 0.35 83 1015.1
20260508140004 67 360 3.5 11.3 0.00 0.52 0.41 83
20260508135406 67 360 3.5 11.3 0.00 0.52 0.41 83
20260508134612 67 96 7.0 11.3 0.00 0.52 0.35 83 1015.0
20260508134504 67 45 11.3 13.0 0.00 0.52 0.41 83
20260508133604 67 45 11.3 13.0 0.00 0.52 0.41 83
20260508133042 67 114 9.6 13.0 0.00 0.52 0.35 83 1015.0
20260508132704 68 270 10.4 13.9 0.00 0.52 0.41 81
20260508131804 68 270 10.4 13.9 0.00 0.52 0.41 81
20260508131617 67 108 10.4 13.9 0.00 0.52 0.35 81 1014.9
20260508130904 68 225 9.6 13.9 0.00 0.52 0.41 78
20260508130045 68 90 7.8 13.9 0.00 0.52 0.35 78 1014.8
20260508130004 69 180 9.6 11.3 0.00 0.52 0.41 76
20260508125405 69 180 9.6 11.3 0.00 0.52 0.41 76
20260508124525 70 202 13.9 14.8 0.00 0.52 0.41 79
20260508123604 70 202 13.9 14.8 0.00 0.52 0.41 79
20260508123011 69 121 9.6 14.8 0.00 0.52 0.35 79 1014.4
20260508122704 70 90 8.7 14.8 0.00 0.52 0.41 77
20260508121804 70 90 8.7 14.8 0.00 0.52 0.41 77
20260508121607 70 100 7.0 14.8 0.00 0.52 0.35 77 1014.5
20260508120925 69 22 8.7 13.0 0.00 0.52 0.41 79
20260508120044 69 113 7.0 13.0 0.00 0.52 0.35 79 1014.5
20260508120004 70 360 11.3 13.0 0.00 0.52 0.41 77
20260508115404 70 360 11.3 13.0 0.00 0.52 0.41 77
20260508114506 69 112 7.8 13.0 0.00 0.52 0.35 77 1014.7
20260508114504 68 315 10.4 13.9 0.00 0.52 0.41 79
20260508113604 68 315 10.4 13.9 0.00 0.52 0.41 79
20260508113056 68 126 8.7 13.9 0.00 0.52 0.35 79 1014.8
20260508112704 69 360 4.3 12.2 0.00 0.52 0.41 79
20260508111825 69 360 4.3 12.2 0.00 0.52 0.41 79
20260508111533 69 128 6.1 12.2 0.00 0.52 0.35 79 1014.6
20260508110904 69 337 9.6 13.0 0.00 0.52 0.41 81
20260508110129 68 95 8.7 13.0 0.00 0.52 0.35 81 1014.8
20260508110005 67 67 7.0 13.9 0.00 0.52 0.41 84
20260508105404 67 67 7.0 13.9 0.00 0.52 0.41 84
20260508104603 67 115 9.6 13.9 0.00 0.52 0.35 84 1014.8
20260508104504 68 157 7.8 11.3 0.00 0.52 0.41 86
20260508103604 68 157 7.8 11.3 0.00 0.52 0.41 86
20260508103044 67 119 7.8 11.3 0.00 0.52 0.35 86 1014.7
20260508102704 67 157 7.8 10.4 0.00 0.52 0.41 90
20260508101826 67 157 7.8 10.4 0.00 0.52 0.41 90
20260508101517 67 119 7.0 10.4 0.00 0.52 0.35 90 1014.6
20260508100904 65 315 2.6 10.4 0.01 0.52 0.41 92
20260508100115 65 94 4.3 10.4 0.01 0.52 0.35 92 1014.6
20260508100004 65 180 7.0 7.8 0.02 0.52 0.41 95
20260508095404 65 180 7.0 7.8 0.02 0.52 0.41 95
20260508094606 64 88 3.5 7.8 0.02 0.52 0.35 95 1014.9
20260508094505 62 270 1.7 5.2 0.02 0.52 0.41 95
20260508093604 62 270 1.7 5.2 0.02 0.52 0.41 95
20260508093026 62 92 2.6 5.2 0.02 0.52 0.35 95 1014.9
20260508092704 62 202 1.7 5.2 0.09 0.52 0.41 94
20260508091825 62 202 1.7 5.2 0.09 0.52 0.41 94
20260508091507 61 153 0.9 5.2 0.09 0.52 0.35 94 1015.0
20260508090904 62 180 1.7 2.6 0.32 0.51 0.40 94
20260508090116 61 40 1.7 2.6 0.32 0.51 0.35 94 1014.8
20260508090005 62 180 2.6 3.5 0.32 0.50 0.39 93
20260508085427 62 180 2.6 3.5 0.32 0.50 0.39 93
20260508084549 61 40 2.6 3.5 0.32 0.50 0.34 93 1014.4
20260508084504 62 180 2.6 5.2 0.32 0.50 0.39 94
20260508083604 62 180 2.6 5.2 0.32 0.50 0.39 94
20260508083016 61 40 2.6 5.2 0.32 0.50 0.34 94 1014.5
20260508082704 61 337 2.6 4.3 0.25 0.43 0.32 93
20260508081825 61 337 2.6 4.3 0.25 0.43 0.32 93
20260508081616 61 207 0.9 4.3 0.25 0.43 0.27 93 1014.5
20260508080904 62 22 2.6 2.6 0.01 0.19 0.08 93
20260508080056 61 49 0.9 2.6 0.01 0.19 0.02 93 1014.4
20260508080004 62 337 4.3 7.8 0.00 0.18 0.07 93
20260508075404 62 337 4.3 7.8 0.00 0.18 0.07 93
20260508074527 61 47 3.5 7.8 0.00 0.18 0.02 93 1014.2
20260508074525 62 225 3.5 8.7 0.00 0.18 0.07 94
20260508073604 62 225 3.5 8.7 0.00 0.18 0.07 94
20260508073005 61 42 3.5 8.7 0.00 0.18 0.02 94 1014.1
20260508072704 61 45 3.5 7.8 0.00 0.18 0.07 95
20260508071804 61 45 3.5 7.8 0.00 0.18 0.07 95
20260508071550 60 50 2.6 7.8 0.00 0.18 0.02 95 1014.1
20260508070905 60 247 3.5 8.7 0.00 0.18 0.07 95
20260508070005 60 22 1.7 7.0 0.00 0.18 0.07 95
20260508065405 60 22 1.7 7.0 0.00 0.18 0.07 95
20260508064612 59 49 2.6 7.0 0.00 0.18 0.02 95 1014.0
20260508064504 60 157 3.5 6.1 0.00 0.18 0.07 95
20260508063604 60 157 3.5 6.1 0.00 0.18 0.07 95
20260508063012 59 87 2.6 6.1 0.00 0.18 0.02 95 1013.8
20260508062704 60 337 2.6 7.8 0.00 0.18 0.07 95
20260508061804 60 337 2.6 7.8 0.00 0.18 0.07 95
20260508061545 59 79 3.5 7.8 0.00 0.18 0.02 95 1013.6
20260508060905 59 67 5.2 7.0 0.00 0.18 0.07 96
20260508060015 59 67 3.5 7.0 0.00 0.18 0.02 96 1013.7
20260508060006 59 135 3.5 7.0 0.00 0.18 0.07 96
20260508055404 59 135 3.5 7.0 0.00 0.18 0.07 96
20260508054611 59 54 2.6 7.0 0.00 0.18 0.02 96 1013.5
20260508054504 59 225 0.9 2.6 0.00 0.18 0.07 96
20260508053604 59 225 0.9 2.6 0.00 0.18 0.07 96
20260508053044 59 42 0.9 2.6 0.00 0.18 0.02 96 1013.2
20260508052704 58 225 0.9 2.6 0.00 0.18 0.07 96
20260508051804 58 225 0.9 2.6 0.00 0.18 0.07 96
20260508051516 58 42 0.9 2.6 0.00 0.18 0.02 96 1012.8
20260508050925 58 225 0.9 2.6 0.00 0.18 0.07 96
20260508050046 57 42 0.9 2.6 0.00 0.18 0.02 96 1012.6
20260508050006 57 225 3.5 3.5 0.00 0.18 0.07 96
20260508045404 57 225 3.5 3.5 0.00 0.18 0.07 96
20260508044602 57 42 1.7 3.5 0.00 0.18 0.02 96 1012.4
20260508044505 57 225 1.7 2.6 0.00 0.18 0.07 96
20260508043605 57 225 1.7 2.6 0.00 0.18 0.07 96
20260508043005 57 42 1.7 2.6 0.00 0.18 0.02 96 1012.4
20260508042705 58 225 2.6 3.5 0.00 0.18 0.07 95
20260508041804 58 225 2.6 3.5 0.00 0.18 0.07 95
20260508041543 57 42 1.7 3.5 0.00 0.18 0.02 95 1012.3
20260508040905 58 225 1.7 1.7 0.00 0.18 0.07 95
20260508040110 58 42 0.0 1.7 0.00 0.18 0.02 95 1012.2
20260508040005 58 225 0.9 3.5 0.00 0.18 0.07 96
20260508035404 58 225 0.9 3.5 0.00 0.18 0.07 96
20260508034549 58 42 0.9 3.5 0.00 0.18 0.02 96 1012.0
20260508034504 59 292 2.6 6.1 0.00 0.18 0.07 95
20260508033625 59 292 2.6 6.1 0.00 0.18 0.07 95
20260508033011 58 45 2.6 6.1 0.00 0.18 0.02 95 1012.1
20260508032704 59 292 3.5 5.2 0.00 0.18 0.07 96
20260508031804 59 292 3.5 5.2 0.00 0.18 0.07 96
20260508031609 59 45 2.6 5.2 0.00 0.18 0.02 96 1012.3
20260508030925 59 315 2.6 4.3 0.00 0.18 0.07 96
20260508030005 59 315 2.6 3.5 0.00 0.18 0.07 96
20260508025425 59 315 2.6 3.5 0.00 0.18 0.07 96
20260508024601 58 46 2.6 3.5 0.00 0.18 0.02 96 1012.4
20260508024525 59 337 0.9 2.6 0.00 0.18 0.07 96
20260508023604 59 337 0.9 2.6 0.00 0.18 0.07 96
20260508023013 58 47 0.9 2.6 0.00 0.18 0.02 96 1012.4
20260508022725 59 337 0.0 4.3 0.00 0.18 0.07 96
20260508021804 59 337 0.0 4.3 0.00 0.18 0.07 96
20260508021616 58 47 0.9 4.3 0.00 0.18 0.02 96 1012.4
20260508020906 59 270 1.7 6.1 0.00 0.18 0.07 95
20260508020115 58 44 2.6 6.1 0.00 0.18 0.02 95 1012.2
20260508020004 59 202 2.6 4.3 0.00 0.18 0.07 95
20260508015404 59 202 2.6 4.3 0.00 0.18 0.07 95
20260508014551 58 41 2.6 4.3 0.00 0.18 0.02 95 1012.4
20260508014504 59 67 3.5 5.2 0.00 0.18 0.07 95
20260508013604 59 67 3.5 5.2 0.00 0.18 0.07 95
20260508013018 58 35 3.5 5.2 0.00 0.18 0.02 95 1012.4
20260508012704 59 315 2.6 2.6 0.00 0.18 0.07 95
20260508011804 59 315 2.6 2.6 0.00 0.18 0.07 95
20260508011505 58 46 1.7 2.6 0.00 0.18 0.02 95 1012.5
20260508010904 59 315 0.9 4.3 0.00 0.18 0.07 95
20260508010108 58 46 1.7 4.3 0.00 0.18 0.02 95 1012.7
20260508010004 59 315 2.6 5.2 0.01 0.18 0.07 95
20260508005404 59 315 2.6 5.2 0.01 0.18 0.07 95
20260508004559 58 46 2.6 5.2 0.01 0.18 0.02 95 1013.0
20260508004504 59 315 4.3 5.2 0.01 0.18 0.07 95
20260508003604 59 315 4.3 5.2 0.01 0.18 0.07 95
20260508003034 58 46 3.5 5.2 0.01 0.18 0.02 95 1013.1
20260508002726 59 225 4.3 7.0 0.01 0.18 0.07 95
20260508001804 59 225 4.3 7.0 0.01 0.18 0.07 95
20260508001526 58 58 2.6 7.0 0.01 0.18 0.02 95 1013.2
20260508000904 59 270 2.6 7.0 0.01 0.18 0.07 95
20260508000107 58 28 3.5 7.0 0.01 0.18 0.02 95 1013.2
20260508000004 59 112 3.5 3.5 0.00 0.17 0.06 95
20260507235404 59 112 3.5 3.5 0.00 0.17 0.06 95
20260507234555 58 37 1.7 3.5 0.00 0.17 0.01 95 1013.5
20260507234525 59 270 4.3 8.7 0.00 0.17 0.06 95
20260507233605 59 270 4.3 8.7 0.00 0.17 0.06 95
20260507233038 58 44 2.6 8.7 0.00 0.17 0.01 95 1013.7
20260507232704 59 270 5.2 8.7 0.00 0.17 0.06 95
20260507231804 59 270 5.2 8.7 0.00 0.17 0.06 95
20260507231512 58 44 4.3 8.7 0.00 0.17 0.01 95 1013.7
20260507230904 59 67 3.5 8.7 0.01 0.17 0.06 94
20260507230114 58 35 4.3 8.7 0.01 0.17 0.01 94 1013.9
20260507230005 59 112 3.5 9.6 0.06 0.17 0.06 94
20260507225405 59 112 3.5 9.6 0.06 0.17 0.06 94
20260507224555 58 37 5.2 9.6 0.06 0.17 0.01 94 1014.0
20260507224505 59 135 8.7 9.6 0.08 0.17 0.06 94
20260507223604 59 135 8.7 9.6 0.08 0.17 0.06 94
20260507223020 58 22 5.2 9.6 0.08 0.17 0.01 94 1014.1
20260507222704 59 270 8.7 9.6 0.13 0.17 0.06 94
20260507221804 59 270 8.7 9.6 0.13 0.17 0.06 94
20260507221615 58 12 7.8 9.6 0.13 0.17 0.01 94 1014.1
20260507220925 59 45 8.7 10.4 0.13 0.17 0.06 94
20260507220106 58 34 7.0 10.4 0.13 0.17 0.17 94 1014.1
20260507220026 59 247 2.6 10.4 0.07 0.11 0.00 93
20260507215404 59 247 2.6 10.4 0.07 0.11 0.11 93
20260507214549 58 75 5.2 10.4 0.07 0.11 0.11 93 1014.1
20260507214525 59 67 7.0 11.3 0.06 0.09 0.09 92
20260507213604 59 67 7.0 11.3 0.06 0.09 0.09 92
20260507213034 58 67 6.1 11.3 0.06 0.09 0.09 92 1014.0
20260507212705 59 360 5.2 9.6 0.00 0.04 0.04 92
20260507211804 59 360 5.2 9.6 0.00 0.04 0.04 92
20260507211507 58 32 6.1 9.6 0.00 0.04 0.04 92 1013.8
20260507210904 59 270 7.0 9.6 0.00 0.04 0.04 92
20260507210056 58 28 7.0 9.6 0.00 0.04 0.04 92 1013.7
20260507210026 59 45 5.2 9.6 0.00 0.04 0.04 92
20260507205405 59 45 5.2 9.6 0.00 0.04 0.04 92
20260507204518 58 34 6.1 9.6 0.00 0.04 0.04 92 1013.7
20260507204505 59 180 5.2 8.7 0.00 0.04 0.04 93
20260507203625 59 180 5.2 8.7 0.00 0.04 0.04 93
20260507203113 58 40 5.2 8.7 0.00 0.04 0.04 93 1013.6
20260507202704 59 67 7.0 9.6 0.00 0.04 0.04 93
20260507201804 59 67 7.0 9.6 0.00 0.04 0.04 93
20260507201516 58 19 6.1 9.6 0.00 0.04 0.04 93 1013.3
20260507200904 59 315 7.0 9.6 0.00 0.04 0.04 93
20260507200005 59 202 5.2 9.6 0.00 0.04 0.04 93
20260507195426 59 202 5.2 9.6 0.00 0.04 0.04 93
20260507194558 59 25 5.2 9.6 0.00 0.04 0.04 93 1012.9
20260507194504 59 315 5.2 10.4 0.01 0.04 0.04 93
20260507193605 59 315 5.2 10.4 0.01 0.04 0.04 93
20260507193018 59 30 6.1 10.4 0.01 0.04 0.04 93 1012.7
20260507192706 59 135 8.7 10.4 0.01 0.04 0.04 93
20260507191804 59 135 8.7 10.4 0.01 0.04 0.04 93
20260507191536 59 22 7.8 10.4 0.01 0.04 0.04 93 1012.7
20260507190904 59 180 7.0 9.6 0.01 0.04 0.04 93
20260507190026 60 225 7.0 9.6 0.01 0.04 0.04 93
20260507190013 59 24 6.1 9.6 0.01 0.04 0.04 93 1012.5
20260507185405 60 225 7.0 9.6 0.01 0.04 0.04 93
20260507184610 59 26 7.0 9.6 0.01 0.04 0.04 93 1012.5
20260507184504 60 22 4.3 11.3 0.00 0.03 0.03 92
20260507183625 60 22 4.3 11.3 0.00 0.03 0.03 92
20260507183053 59 17 6.1 11.3 0.00 0.03 0.03 92 1012.3
20260507182725 60 247 8.7 9.6 0.00 0.03 0.03 92
20260507181805 60 247 8.7 9.6 0.00 0.03 0.03 92
20260507181533 60 11 7.0 9.6 0.00 0.03 0.03 92 1012.1
20260507180904 60 22 4.3 9.6 0.00 0.03 0.03 92
20260507180011 60 49 5.2 9.6 0.00 0.03 0.03 92 1012.0
20260507180004 60 135 7.8 11.3 0.00 0.03 0.03 92
20260507175405 60 135 7.8 11.3 0.00 0.03 0.03 92
20260507174607 60 38 6.1 11.3 0.00 0.03 0.03 92 1011.9
20260507174504 60 292 4.3 9.6 0.00 0.03 0.03 92